| time (UTC) | temp F | wind direction | speed MPH | gust MPH | rain 1hr in | rain 24hr in | rain mn in | humidity % | barometer mb |
| 20260904210013 | 62 | 229 | 0.0 | 4.0 | 0.00 | 0.41 | 0.41 | 91 | 1011.6 |
| 20260904204510 | 60 | 245 | 0.0 | 3.0 | 0.01 | 0.41 | 0.41 | 91 | 1011.7 |
| 20260904203015 | 61 | 227 | 2.0 | 4.0 | 0.01 | 0.41 | 0.41 | 91 | 1011.7 |
| 20260904201507 | 60 | 223 | 2.0 | 4.0 | 0.01 | 0.41 | 0.41 | 91 | 1011.5 |
| 20260904200007 | 60 | 232 | 0.0 | 4.0 | 0.01 | 0.41 | 0.41 | 90 | 1011.5 |
| 20260904194507 | 60 | 169 | 1.0 | 5.0 | 0.00 | 0.40 | 0.40 | 90 | 1011.5 |
| 20260904193008 | 61 | 236 | 1.0 | 9.0 | 0.00 | 0.40 | 0.40 | 89 | 1011.4 |
| 20260904191505 | 61 | 200 | 1.0 | 6.0 | 0.00 | 0.40 | 0.40 | 89 | 1011.3 |
| 20260904190006 | 60 | 227 | 1.0 | 6.0 | 0.00 | 0.40 | 0.40 | 89 | 1011.4 |
| 20260904184503 | 60 | 251 | 1.0 | 4.0 | 0.00 | 0.40 | 0.40 | 90 | 1011.2 |
| 20260904183002 | 60 | 201 | 0.0 | 3.0 | 0.00 | 0.40 | 0.40 | 90 | 1011.2 |
| 20260904181505 | 61 | 132 | 0.0 | 5.0 | 0.00 | 0.40 | 0.40 | 90 | 1011.1 |
| 20260904180100 | 60 | 229 | 1.0 | 5.0 | 0.00 | 0.40 | 0.40 | 89 | 1011.0 |
| 20260904174602 | 60 | 246 | 1.0 | 5.0 | 0.00 | 0.40 | 0.40 | 90 | 1010.8 |
| 20260904173057 | 60 | 244 | 1.0 | 5.0 | 0.00 | 0.40 | 0.40 | 92 | 1010.7 |
| 20260904171604 | 59 | 138 | 1.0 | 7.0 | 0.00 | 0.40 | 0.40 | 94 | 1010.7 |
| 20260904170053 | 58 | 259 | 3.0 | 7.0 | 0.00 | 0.40 | 0.40 | 95 | 1010.5 |
| 20260904164550 | 58 | 231 | 0.0 | 3.0 | 0.00 | 0.40 | 0.40 | 96 | 1010.5 |
| 20260904163050 | 57 | 155 | 0.0 | 4.0 | 0.00 | 0.40 | 0.40 | 96 | 1010.4 |
| 20260904161546 | 57 | 232 | 0.0 | 2.0 | 0.00 | 0.40 | 0.40 | 96 | 1010.2 |
| 20260904160045 | 57 | 245 | 0.0 | 3.0 | 0.01 | 0.40 | 0.40 | 96 | 1010.1 |
| 20260904154547 | 57 | 296 | 0.0 | 0.0 | 0.01 | 0.40 | 0.40 | 96 | 1010.0 |
| 20260904153037 | 56 | 296 | 0.0 | 0.0 | 0.01 | 0.40 | 0.40 | 96 | 1009.9 |
| 20260904151536 | 57 | 296 | 0.0 | 1.0 | 0.01 | 0.40 | 0.40 | 96 | 1009.8 |
| 20260904150033 | 56 | 296 | 0.0 | 2.0 | 0.00 | 0.39 | 0.39 | 95 | 1009.7 |
| 20260904144530 | 56 | 296 | 0.0 | 0.0 | 0.00 | 0.39 | 0.39 | 95 | 1009.6 |
| 20260904143035 | 56 | 296 | 0.0 | 1.0 | 0.00 | 0.39 | 0.39 | 95 | 1009.3 |
| 20260904141527 | 56 | 296 | 0.0 | 1.0 | 0.00 | 0.39 | 0.39 | 95 | 1009.1 |
| 20260904140038 | 56 | 296 | 0.0 | 2.0 | 0.00 | 0.39 | 0.39 | 95 | 1008.9 |
| 20260904134526 | 56 | 296 | 0.0 | 2.0 | 0.03 | 0.39 | 0.39 | 95 | 1008.8 |
| 20260904133023 | 56 | 296 | 0.0 | 0.0 | 0.08 | 0.39 | 0.39 | 95 | 1008.8 |
| 20260904131526 | 56 | 296 | 0.0 | 2.0 | 0.12 | 0.39 | 0.39 | 95 | 1008.6 |
| 20260904130020 | 56 | 296 | 0.0 | 2.0 | 0.19 | 0.39 | 0.39 | 95 | 1008.5 |
| 20260904124519 | 56 | 296 | 0.0 | 0.0 | 0.20 | 0.36 | 0.36 | 95 | 1008.4 |
| 20260904123029 | 56 | 296 | 0.0 | 2.0 | 0.19 | 0.30 | 0.30 | 95 | 1008.4 |
| 20260904121520 | 56 | 265 | 0.0 | 1.0 | 0.21 | 0.27 | 0.27 | 94 | 1008.4 |
| 20260904120016 | 56 | 266 | 0.0 | 0.0 | 0.17 | 0.20 | 0.20 | 94 | 1008.4 |
| 20260904114515 | 56 | 266 | 0.0 | 0.0 | 0.13 | 0.16 | 0.16 | 94 | 1008.3 |
| 20260904113015 | 56 | 266 | 0.0 | 1.0 | 0.09 | 0.11 | 0.11 | 94 | 1008.3 |
| 20260904111514 | 56 | 266 | 0.0 | 0.0 | 0.04 | 0.06 | 0.06 | 94 | 1008.2 |
| 20260904110012 | 57 | 266 | 0.0 | 2.0 | 0.03 | 0.03 | 0.03 | 93 | 1008.1 |
| 20260904104512 | 57 | 266 | 0.0 | 2.0 | 0.03 | 0.03 | 0.03 | 93 | 1008.0 |
| 20260904103020 | 57 | 265 | 0.0 | 1.0 | 0.02 | 0.02 | 0.02 | 93 | 1008.0 |
| 20260904101508 | 57 | 237 | 0.0 | 0.0 | 0.02 | 0.02 | 0.02 | 92 | 1008.0 |
| 20260904100020 | 57 | 237 | 0.0 | 0.0 | 0.00 | 0.00 | 0.00 | 91 | 1008.1 |
| 20260904094507 | 57 | 237 | 0.0 | 1.0 | 0.00 | 0.00 | 0.00 | 90 | 1008.0 |
| 20260904093007 | 58 | 237 | 0.0 | 1.0 | 0.00 | 0.00 | 0.00 | 90 | 1008.1 |
| 20260904091504 | 58 | 237 | 0.0 | 4.0 | 0.00 | 0.00 | 0.00 | 89 | 1008.2 |
| 20260904090004 | 58 | 229 | 0.0 | 1.0 | 0.00 | 0.00 | 0.00 | 89 | 1008.2 |
| 20260904084503 | 58 | 227 | 0.0 | 0.0 | 0.00 | 0.00 | 0.00 | 89 | 1008.3 |
| 20260904083001 | 58 | 242 | 0.0 | 3.0 | 0.00 | 0.00 | 0.00 | 89 | 1008.4 |
| 20260904081601 | 58 | 269 | 0.0 | 3.0 | 0.00 | 0.00 | 0.00 | 90 | 1008.3 |
| 20260904080100 | 58 | 248 | 0.0 | 1.0 | 0.00 | 0.00 | 0.00 | 90 | 1008.3 |
| 20260904074603 | 58 | 248 | 0.0 | 1.0 | 0.00 | 0.00 | 0.00 | 89 | 1008.3 |
| 20260904073101 | 58 | 248 | 1.0 | 3.0 | 0.00 | 0.00 | 0.00 | 90 | 1008.4 |
| 20260904071606 | 58 | 249 | 0.0 | 2.0 | 0.00 | 0.00 | 0.00 | 91 | 1008.3 |
| 20260904070053 | 58 | 254 | 0.0 | 0.0 | 0.00 | 0.00 | 0.00 | 92 | 1008.2 |
| 20260904064551 | 58 | 254 | 0.0 | 1.0 | 0.00 | 0.00 | 0.00 | 92 | 1008.4 |
| 20260904063050 | 58 | 254 | 0.0 | 1.0 | 0.00 | 0.00 | 0.00 | 92 | 1008.4 |
| 20260904061549 | 58 | 237 | 0.0 | 0.0 | 0.00 | 0.00 | 0.00 | 92 | 1008.5 |
| 20260904060051 | 58 | 237 | 0.0 | 1.0 | 0.00 | 0.00 | 0.00 | 92 | 1008.4 |
| 20260904054548 | 58 | 237 | 0.0 | 2.0 | 0.00 | 0.00 | 0.00 | 91 | 1008.3 |
| 20260904053048 | 58 | 237 | 0.0 | 1.0 | 0.00 | 0.00 | 0.00 | 91 | 1008.5 |
| 20260904051547 | 58 | 237 | 0.0 | 1.0 | 0.00 | 0.00 | 0.00 | 90 | 1008.6 |
| 20260904050048 | 58 | 237 | 0.0 | 2.0 | 0.00 | 0.00 | 0.00 | 91 | 1008.6 |
| 20260904044546 | 57 | 237 | 0.0 | 1.0 | 0.00 | 0.00 | 0.00 | 92 | 1008.5 |
| 20260904043045 | 57 | 237 | 0.0 | 2.0 | 0.00 | 0.00 | 0.00 | 92 | 1008.5 |
| 20260904041544 | 57 | 237 | 0.0 | 2.0 | 0.00 | 0.00 | 0.00 | 92 | 1008.5 |
| 20260904040044 | 57 | 237 | 0.0 | 2.0 | 0.00 | 0.00 | 0.00 | 92 | 1008.6 |
| 20260904034543 | 57 | 237 | 0.0 | 2.0 | 0.00 | 0.01 | 0.00 | 92 | 1008.5 |
| 20260904033043 | 57 | 237 | 0.0 | 0.0 | 0.00 | 0.01 | 0.00 | 91 | 1008.4 |
| 20260904031541 | 58 | 237 | 0.0 | 0.0 | 0.00 | 0.01 | 0.00 | 90 | 1008.5 |
| 20260904030041 | 58 | 237 | 0.0 | 1.0 | 0.00 | 0.01 | 0.00 | 89 | 1008.4 |
| 20260904024540 | 59 | 237 | 0.0 | 1.0 | 0.00 | 0.02 | 0.00 | 87 | 1008.4 |
| 20260904023039 | 60 | 237 | 0.0 | 4.0 | 0.00 | 0.02 | 0.00 | 84 | 1008.4 |
| 20260904021549 | 61 | 251 | 2.0 | 4.0 | 0.00 | 0.02 | 0.00 | 83 | 1008.5 |
| 20260904020039 | 62 | 234 | 1.0 | 5.0 | 0.00 | 0.02 | 0.00 | 83 | 1008.5 |
| 20260904014540 | 63 | 234 | 2.0 | 7.0 | 0.00 | 0.08 | 0.00 | 81 | 1008.6 |
| 20260904013037 | 63 | 227 | 2.0 | 6.0 | 0.00 | 0.08 | 0.00 | 84 | 1008.5 |
| 20260904011548 | 64 | 191 | 1.0 | 4.0 | 0.00 | 0.08 | 0.00 | 83 | 1008.4 |
| 20260904010036 | 64 | 229 | 1.0 | 6.0 | 0.00 | 0.08 | 0.00 | 83 | 1008.5 |
| 20260904004535 | 64 | 200 | 1.0 | 5.0 | 0.00 | 0.12 | 0.00 | 83 | 1008.6 |
| 20260904003034 | 64 | 237 | 2.0 | 6.0 | 0.00 | 0.12 | 0.00 | 83 | 1008.4 |
| 20260904001533 | 64 | 217 | 2.0 | 7.0 | 0.00 | 0.12 | 0.00 | 81 | 1008.5 |
| 20260904000032 | 65 | 227 | 2.0 | 7.0 | 0.00 | 0.12 | 0.00 | 79 | 1008.5 |
| 20260903234530 | 65 | 238 | 3.0 | 7.0 | 0.00 | 0.31 | 0.00 | 82 | 1008.6 |
| 20260903233029 | 66 | 203 | 3.0 | 8.0 | 0.00 | 0.31 | 0.00 | 81 | 1008.7 |
| 20260903231529 | 68 | 216 | 4.0 | 9.0 | 0.00 | 0.31 | 0.00 | 79 | 1008.8 |
| 20260903230035 | 69 | 182 | 5.0 | 11.0 | 0.00 | 0.31 | 0.00 | 78 | 1008.8 |
| 20260903224534 | 67 | 180 | 3.0 | 9.0 | 0.00 | 0.52 | 0.00 | 79 | 1008.9 |
| 20260903223026 | 69 | 229 | 4.0 | 10.0 | 0.00 | 0.52 | 0.00 | 77 | 1009.0 |
| 20260903221525 | 67 | 194 | 3.0 | 9.0 | 0.00 | 0.52 | 0.00 | 80 | 1009.0 |
| 20260903220042 | 66 | 200 | 3.0 | 7.0 | 0.00 | 0.52 | 0.00 | 81 | 1009.0 |
| 20260903214525 | 65 | 193 | 2.0 | 5.0 | 0.00 | 0.82 | 0.00 | 85 | 1008.9 |
| 20260903213026 | 66 | 211 | 2.0 | 5.0 | 0.00 | 0.82 | 0.00 | 84 | 1009.0 |
| 20260903211521 | 66 | 236 | 2.0 | 6.0 | 0.00 | 0.82 | 0.00 | 83 | 1009.0 |